Bellefontaine, OH

6:38 PM EST on November 20, 2017 (GMT -0500)
Bellefontaine

Weather History for KEDJ - November, 2012

Change the Weather History Date:

Friday, November 9, 2012

  Actual Average (KDLZ) Record (KDLZ)
Temperature  
Mean Temperature 42 °F -  
Max Temperature 55 °F 52 °F 72 °F (1975)
Min Temperature 30 °F 32 °F 9 °F (1991)
Degree Days  
Heating Degree Days 22    
Moisture  
Dew Point 35 °F    
Average Humidity 75    
Maximum Humidity 100    
Minimum Humidity 47    
Precipitation  
Precipitation 0.00 in - - ()
Sea Level Pressure  
Sea Level Pressure 30.14 in    
Wind  
Wind Speed 6 mph (SSE)    
Max Wind Speed 15 mph    
Max Gust Speed 17 mph    
Visibility 7 miles    
Events      
Averages and records for this station are not official NWS values.
T = Trace of Precipitation, MM = Missing Value Source: NWS Daily Summary

Daily Weather History Graph

Daily Weather History Graph

Search for Another Location

Airport or City:

Trip Planner

Search our weather history database for the weather conditions in past years. The results will help you decide how hot, cold, wet, or windy it might be!

Date:

Astronomy

Nov. 09, 2012 Rise Set
Actual Time 7:14 AM EST 5:22 PM EST
Civil Twilight 6:46 AM EST 5:51 PM EST
Nautical Twilight 6:13 AM EST 6:24 PM EST
Astronomical Twilight 5:41 AM EST 6:56 PM EST
Moon 2:11 AM EST (11/9) 2:36 PM EST (11/9)
Length of Visible Light 11h 05m
Length of Day
10h 08m
Waning Crescent, 23% of the Moon is Illuminated
Nov 9
Waning Crescent
Nov 13
New
Nov 20
First Quarter
Nov 28
Full
Dec 6
Last Quarter

Hourly Weather History & Observations

Time (EST) Temp. Windchill Dew Point Humidity Pressure Visibility Wind Dir Wind Speed Gust Speed Precip Events Conditions
12:10 AM 32.0 °F 28.7 °F 32.0 °F 100% 30.14 in 5.0 mi SE 3.5 mph - 0.00 in   Clear
12:30 AM 32.0 °F - 32.0 °F 100% 30.14 in 4.0 mi Calm Calm - 0.00 in   Clear
12:50 AM 32.0 °F - 32.0 °F 100% 30.14 in 3.0 mi Calm Calm - 0.00 in   Clear
1:10 AM 32.0 °F - 32.0 °F 100% 30.14 in 4.0 mi Calm Calm - 0.00 in   Clear
1:30 AM - - - N/A% 30.14 in 3.0 mi Calm Calm - 0.00 in   Clear
1:50 AM 32.0 °F - 32.0 °F 100% 30.15 in 3.0 mi Calm Calm - 0.00 in   Clear
2:10 AM 30.2 °F - 30.2 °F 100% 30.15 in 2.5 mi Calm Calm - 0.00 in   Clear
2:30 AM 32.0 °F - 32.0 °F 100% 30.15 in 4.0 mi Calm Calm - 0.00 in   Clear
2:50 AM 32.0 °F 28.7 °F 32.0 °F 100% 30.15 in 4.0 mi SSE 3.5 mph - 0.00 in   Clear
3:10 AM 30.2 °F - 30.2 °F 100% 30.16 in 4.0 mi Calm Calm - 0.00 in   Clear
3:30 AM 32.0 °F - 32.0 °F 100% 30.15 in 3.0 mi Calm Calm - 0.00 in   Clear
3:50 AM 32.0 °F 28.7 °F 32.0 °F 100% 30.16 in 3.0 mi SSE 3.5 mph - 0.00 in   Clear
4:10 AM 32.0 °F 28.7 °F 32.0 °F 100% 30.16 in 3.0 mi SSE 3.5 mph - 0.00 in   Clear
4:30 AM 32.0 °F 27.5 °F 32.0 °F 100% 30.16 in 3.0 mi SSE 4.6 mph - 0.00 in   Clear
4:50 AM 32.0 °F - 32.0 °F 100% 30.17 in 3.0 mi Calm Calm - 0.00 in   Clear
5:10 AM 32.0 °F - 32.0 °F 100% 30.17 in 3.0 mi Calm Calm - 0.00 in   Clear
5:30 AM 32.0 °F 27.5 °F 32.0 °F 100% 30.18 in 3.0 mi SE 4.6 mph - 0.00 in   Clear
5:50 AM 32.0 °F 27.5 °F 32.0 °F 100% 30.19 in 3.0 mi SE 4.6 mph - 0.00 in   Clear
6:10 AM 32.0 °F 27.5 °F 32.0 °F 100% 30.19 in 3.0 mi SE 4.6 mph - 0.00 in   Clear
6:50 AM 33.8 °F 27.0 °F 33.8 °F 100% 30.19 in 3.0 mi SE 8.1 mph - 0.00 in   Clear
7:10 AM 32.0 °F 25.6 °F 32.0 °F 100% 30.19 in 2.5 mi SE 6.9 mph - 0.00 in   Clear
7:30 AM 32.0 °F 25.6 °F 32.0 °F 100% 30.20 in 2.5 mi SSE 6.9 mph - 0.00 in   Clear
7:50 AM 33.8 °F 27.7 °F 33.8 °F 100% 30.20 in 2.5 mi SSE 6.9 mph - 0.00 in   Clear
8:10 AM 33.8 °F 27.7 °F 33.8 °F 100% 30.20 in 2.5 mi SE 6.9 mph - 0.00 in   Clear
8:30 AM 35.6 °F 29.9 °F 33.8 °F 93% 30.20 in 2.5 mi SSE 6.9 mph - 0.00 in   Clear
8:50 AM 37.4 °F 32.8 °F 35.6 °F 93% 30.21 in 3.0 mi SE 5.8 mph - 0.00 in   Clear
9:10 AM 39.2 °F 34.2 °F 37.4 °F 93% 30.21 in 4.0 mi SSE 6.9 mph - 0.00 in   Clear
9:30 AM 41.0 °F 35.8 °F 37.4 °F 87% 30.20 in 4.0 mi SSE 8.1 mph - 0.00 in   Clear
9:50 AM 42.8 °F 38.0 °F 37.4 °F 81% 30.20 in 5.0 mi South 8.1 mph - 0.00 in   Clear
10:10 AM 44.6 °F 39.7 °F 37.4 °F 76% 30.20 in 5.0 mi South 9.2 mph - 0.00 in   Clear
10:30 AM 44.6 °F 39.7 °F 37.4 °F 76% 30.20 in 4.0 mi South 9.2 mph - 0.00 in   Clear
10:50 AM 46.4 °F 42.4 °F 37.4 °F 71% 30.20 in 4.0 mi South 8.1 mph - 0.00 in   Clear
11:10 AM 48.2 °F - 39.2 °F 71% 30.20 in 7.0 mi SSW 9.2 mph - 0.00 in   Clear
11:30 AM 50.0 °F - 37.4 °F 62% 30.19 in 10.0 mi SSW 10.4 mph - 0.00 in   Clear
11:50 AM 51.8 °F - 37.4 °F 58% 30.18 in 10.0 mi SSW 11.5 mph - 0.00 in   Clear
12:10 PM 51.8 °F - 37.4 °F 58% 30.17 in 10.0 mi South 9.2 mph - 0.00 in   Clear
12:30 PM 51.8 °F - 37.4 °F 58% 30.15 in 10.0 mi South 10.4 mph - 0.00 in   Clear
12:50 PM 53.6 °F - 37.4 °F 54% 30.14 in 10.0 mi SSW 11.5 mph - 0.00 in   Clear
1:10 PM 53.6 °F - 37.4 °F 54% 30.13 in 10.0 mi South 11.5 mph 17.3 mph 0.00 in   Clear
1:30 PM 53.6 °F - 37.4 °F 54% 30.13 in 10.0 mi South 11.5 mph - 0.00 in   Clear
1:50 PM 55.4 °F - 37.4 °F 51% 30.12 in 10.0 mi South 11.5 mph - 0.00 in   Clear
2:10 PM 55.4 °F - 37.4 °F 51% 30.12 in 10.0 mi South 12.7 mph - 0.00 in   Clear
2:30 PM 55.4 °F - 37.4 °F 51% 30.11 in 10.0 mi South 11.5 mph - 0.00 in   Clear
2:50 PM 55.4 °F - 37.4 °F 51% 30.11 in 10.0 mi South 10.4 mph - 0.00 in   Clear
3:10 PM 55.4 °F - 35.6 °F 47% 30.11 in 10.0 mi South 10.4 mph 17.3 mph 0.00 in   Clear
3:30 PM 55.4 °F - 35.6 °F 47% 30.10 in 10.0 mi SSE 11.5 mph - 0.00 in   Clear
3:50 PM 55.4 °F - 35.6 °F 47% 30.10 in 10.0 mi South 9.2 mph - 0.00 in   Clear
4:10 PM 55.4 °F - 35.6 °F 47% 30.10 in 10.0 mi South 12.7 mph - 0.00 in   Clear
4:30 PM 55.4 °F - 35.6 °F 47% 30.11 in 10.0 mi South 8.1 mph - 0.00 in   Clear
4:50 PM 53.6 °F - 35.6 °F 51% 30.11 in 10.0 mi South 8.1 mph - 0.00 in   Clear
5:10 PM 51.8 °F - 35.6 °F 54% 30.11 in 10.0 mi South 6.9 mph - 0.00 in   Partly Cloudy
5:30 PM 50.0 °F - 35.6 °F 58% 30.11 in 10.0 mi SSE 6.9 mph - 0.00 in   Partly Cloudy
5:50 PM 48.2 °F - 35.6 °F 62% 30.10 in 10.0 mi SSE 8.1 mph - 0.00 in   Partly Cloudy
6:10 PM 46.4 °F 41.9 °F 35.6 °F 66% 30.10 in 10.0 mi SSE 9.2 mph - 0.00 in   Partly Cloudy
6:30 PM 46.4 °F 41.1 °F 35.6 °F 66% 30.10 in 10.0 mi SE 11.5 mph - 0.00 in   Clear
6:50 PM 48.2 °F - 37.4 °F 66% 30.10 in 10.0 mi SSE 10.4 mph - 0.00 in   Clear
7:10 PM 48.2 °F - 37.4 °F 66% 30.10 in 10.0 mi SSE 10.4 mph - 0.00 in   Clear
7:30 PM 48.2 °F - 35.6 °F 62% 30.09 in 10.0 mi SSE 12.7 mph - 0.00 in   Clear
7:50 PM 48.2 °F - 35.6 °F 62% 30.10 in 10.0 mi SSE 11.5 mph - 0.00 in   Clear
8:10 PM 48.2 °F - 35.6 °F 62% 30.09 in 10.0 mi SSE 11.5 mph - 0.00 in   Scattered Clouds
8:30 PM 48.2 °F - 37.4 °F 66% 30.09 in 10.0 mi SSE 12.7 mph - 0.00 in   Mostly Cloudy
8:50 PM 48.2 °F - 37.4 °F 66% 30.08 in 10.0 mi SSE 13.8 mph - 0.00 in   Overcast
9:10 PM 50.0 °F - 37.4 °F 62% 30.08 in 10.0 mi SSE 15.0 mph - 0.00 in   Overcast
9:30 PM 50.0 °F - 37.4 °F 62% 30.08 in 10.0 mi SSE 15.0 mph - 0.00 in   Overcast
9:50 PM 50.0 °F - 37.4 °F 62% 30.09 in 10.0 mi South 12.7 mph - 0.00 in   Overcast
10:10 PM 50.0 °F - 37.4 °F 62% 30.09 in 10.0 mi South 13.8 mph - 0.00 in   Overcast
10:30 PM 50.0 °F - 37.4 °F 62% 30.09 in 10.0 mi SSE 13.8 mph - 0.00 in   Overcast
10:50 PM 51.8 °F - 37.4 °F 58% 30.10 in 10.0 mi South 9.2 mph - 0.00 in   Overcast
11:10 PM 50.0 °F - 37.4 °F 62% 30.11 in 10.0 mi South 9.2 mph - 0.00 in   Overcast
11:30 PM 48.2 °F - 41.0 °F 76% 30.11 in 10.0 mi SSE 9.2 mph - 0.00 in   Overcast
11:50 PM 48.2 °F - 41.0 °F 76% 30.11 in 10.0 mi SSE 8.1 mph - 0.00 in   Overcast